AO-07 1 07530U 74089B 18235.54407230 -.00000035 00000-0 57498-4 0 9993 2 07530 101.6933 201.8717 0011791 203.5947 292.8419 12.53634047002793 UO-11 1 14781U 84021B 18235.87670134 .00000063 00000-0 13891-4 0 9996 2 14781 97.6446 269.1870 0007594 212.2632 147.8119 14.83024589854478 LO-19 1 20442U 90005G 18235.80647643 -.00000019 00000-0 91408-5 0 9991 2 20442 98.6123 173.8923 0010969 315.4892 44.5410 14.32902672493575 HUBBLE 1 20580U 90037B 18235.57070453 .00000398 00000-0 13351-4 0 9991 2 20580 028.4703 029.6502 0002787 142.3029 284.5769 15.09079953355574 MET-2/21 1 22782U 93055A 18235.54479590 .00000026 00000-0 99527-5 0 9990 2 22782 082.5481 040.4682 0021095 299.6061 091.4420 13.83811553261226 AO-27 1 22825U 93061C 18235.45991135 -.00000011 00000-0 13786-4 0 9996 2 22825 098.8686 212.8156 0008974 144.4091 215.7691 14.30037290298911 IO-26 1 22826U 93061D 18235.53110598 -.00000011 00000-0 13603-4 0 9990 2 22826 098.8626 212.9174 0009660 134.7205 225.4765 14.30369127299131 FO-29 1 24278U 96046B 18235.81421502 .00000000 00000-0 39344-4 0 9997 2 24278 98.5155 65.2453 0349379 295.5344 61.0057 13.53085163 87380 NOAA-15 1 25338U 98030A 18235.55706022 .00000036 00000-0 33848-4 0 9996 2 25338 098.7679 252.0285 0011140 037.2247 322.9703 14.25871831054369 GO-32 1 25397U 98043D 18235.43184131 -.00000030 00000-0 60935-5 0 9996 2 25397 098.6524 174.7687 0001588 139.1913 220.9385 14.23649975045076 ISS 1 25544U 98067A 18235.94006556 .00000805 00000-0 19613-4 0 9991 2 25544 51.6425 41.0532 0005980 86.9575 34.3421 15.53864358129054 NO-44 1 26931U 01043C 18235.89365752 -.00000038 00000-0 17046-4 0 9997 2 26931 67.0510 54.7036 0007688 264.4408 95.5816 14.30514345882231 SO-50 1 27607U 02058C 18235.65198898 -.00000022 00000-0 17820-4 0 9997 2 27607 64.5534 243.8092 0071941 314.0589 45.4602 14.75472449842913 CO-55 1 27844U 03031E 18235.50115219 .00000049 00000-0 41634-4 0 9990 2 27844 098.6872 243.1649 0009925 169.9359 190.2019 14.22128930785726 CO-57 1 27848U 03031J 18235.47925268 .00000034 00000-0 35193-4 0 9990 2 27848 098.6957 243.5636 0009599 180.5652 179.5516 14.21731156785592 RS-22 1 27939U 03042A 18235.86838361 .00000043 00000-0 16194-4 0 9993 2 27939 97.9999 13.2909 0011683 296.8836 214.6604 14.66708835796732 NOAA-18 1 28654U 05018A 18235.54745528 .00000002 00000-0 26363-4 0 9994 2 28654 99.1403 272.3534 0013345 300.5144 59.4709 14.12383075683287 CO-58 1 28895U 05043F 18235.41305427 .00000095 00000-0 27134-4 0 9994 2 28895 097.9180 024.1796 0016082 212.9301 147.0901 14.63572531683479 Falconsat-3 1 30776U 07006E 18235.27639154 .00001839 00000-0 54785-4 0 9996 2 30776 035.4348 199.5706 0003852 275.4127 084.6159 15.34781789634633 CO-65 1 32785U 08021C 18235.89221441 .00000168 00000-0 23849-4 0 9991 2 32785 97.5472 244.8380 0013361 167.1431 193.0129 14.88161517559249 AAUSAT2 1 32788U 08021F 18235.51545146 .00000009 00000-0 58392-5 0 9990 2 32788 097.5189 259.2067 0013286 119.4090 240.8459 14.94422017560135 DO-64 1 32789U 08021G 18235.14557673 .00000941 00000-0 68186-4 0 9994 2 32789 097.5072 288.2449 0014034 072.8866 287.3897 15.06236927561767 CO-66 1 32791U 08021J 18235.87011965 .00000263 00000-0 32160-4 0 9996 2 32791 97.5349 250.3243 0014227 147.5517 212.6580 14.90608644559595 RS-30 1 32953U 08025A 18235.80713578 .00000007 00000-0 -23191-4 0 9993 2 32953 82.5066 330.6265 0019878 64.9813 295.3329 12.43085106465176 PRISM 1 33493U 09002B 18232.16673942 -.00000063 00000-0 68896-7 0 9991 2 33493 98.1260 136.6991 0016932 103.3140 257.3899 14.96299307519916 NOAA-19 1 33591U 09005A 18235.51465834 .00000100 00000-0 79683-4 0 9998 2 33591 99.1476 214.8977 0014662 134.6750 225.5618 14.12302356491675 TISAT-1 1 36799U 10035E 18235.36787449 .00000135 00000-0 19858-4 0 9994 2 36799 98.1154 13.4015 0012033 354.8461 5.2630 14.90857940440166 JUGNU 1 37839U 11058B 18235.59989285 .00000328 00000-0 32911-4 0 9992 2 37839 019.9625 348.4732 0018794 270.4291 201.8579 14.12626264354805 SRMSAT 1 37841U 11058D 18235.56531703 .00000294 00000-0 16560-4 0 9994 2 37841 019.9731 039.2720 0011831 150.4888 278.8638 14.10612116354317 AO-71 1 37854U 11061E 18235.73392577 .00000738 00000-0 46458-4 0 9997 2 37854 101.7019 335.2883 0163097 233.0603 125.5577 15.05606081371996 HRBE 1 37855U 11061F 18235.50699877 .00000610 00000-0 39362-4 0 9991 2 37855 101.7143 332.4730 0175935 242.9149 115.4018 15.04590042371304 ALMASAT-1 1 38078U 12006B 18235.90365495 .00014772 38622-5 12577-3 0 9997 2 38078 69.4313 28.8329 0226944 2.6716 153.1865 15.44335503351095 HORYU-2 1 38340U 12025D 18235.54602845 .00000135 00000-0 27946-4 0 9992 2 38340 098.3636 259.5679 0011529 003.6280 356.5009 14.75588397326630 RS-40 1 38735U 12041C 18235.58742048 .00000024 00000-0 10534-3 0 9993 2 38735 082.4737 054.5855 0017096 164.6480 195.5122 12.42577268275376 BEESAT-3 1 39135U 13015F 18235.54138743 .00000707 00000-0 45692-4 0 9999 2 39135 064.8690 283.2421 0018073 233.0483 126.8988 15.16815992294475 BEESAT-2 1 39136U 13015G 18235.60091222 .00000474 00000-0 34408-4 0 9991 2 39136 064.8690 286.0172 0016970 235.2403 124.7125 15.16273584294420 ZACUBE-1 1 39417U 13066B 18235.88004452 .00000131 00000-0 23072-4 0 9993 2 39417 97.5840 260.8910 0057607 294.0823 65.4370 14.80967230256815 TRITON-1 1 39427U 13066M 18235.45377055 .00000169 00000-0 34830-4 0 9994 2 39427 097.6456 226.9398 0115175 044.4220 316.6153 14.67701613254258 GOMX-1 1 39430U 13066Q 18235.85198948 .00000139 00000-0 33658-4 0 9998 2 39430 97.7033 207.8754 0152796 116.6850 245.0088 14.59111391253024 LO-74 1 39440U 13066AA 18235.47215587 .00000154 00000-0 28608-4 0 9992 2 39440 097.6009 246.7081 0079865 338.1020 021.6784 14.75707783254641 AO-73 1 39444U 13066AE 18235.50245744 .00000183 00000-0 29096-4 0 9992 2 39444 097.5846 262.1438 0056684 290.3292 069.1836 14.81757729255036 SPROUT 1 39770U 14029E 18235.75432927 .00000558 00000-0 68533-4 0 9997 2 39770 97.8779 336.2501 0009146 355.3936 4.7166 14.86937080230408 DUCHIFAT-1 1 40021U 14033M 18235.60131806 .00000318 00000-0 38538-4 0 9995 2 40021 097.9132 154.4373 0012140 322.3568 037.6799 14.90364627226995 NANOSATCBR1 1 40024U 14033Q 18235.74309406 .00000186 00000-0 25378-4 0 9997 2 40024 97.9061 152.6863 0011451 324.7703 35.2756 14.89620205226930 EO-79 1 40025U 14033R 18235.56121176 .00000189 00000-0 26203-4 0 9995 2 40025 097.9016 150.8129 0011791 330.1944 029.8599 14.88757218226300 DTUSAT-2 1 40030U 14033W 18235.74569814 .00000151 00000-0 22362-4 0 9997 2 40030 97.8958 149.6043 0011109 324.6878 35.3601 14.88362157226780 EO-80 1 40032U 14033Y 18235.73922450 .00000160 00000-0 23405-4 0 9996 2 40032 97.8965 149.6001 0011074 325.2361 34.8130 14.88300177226773 ANTELSAT 1 40034U 14033AA 18235.47969577 .00000145 00000-0 29168-4 0 9995 2 40034 097.8015 109.6226 0058552 342.7683 017.1537 14.73957251224069 VELOX-1 1 40057U 14034E 18235.83059016 .00000244 00000-0 41767-4 0 9998 2 40057 98.2094 348.0699 0012383 109.2682 250.9871 14.77471829223632 DAURIA DX 1 1 40071U 14037C 18235.83882728 .00000093 00000-0 19365-4 0 9992 2 40071 98.3849 10.2534 0009758 102.3619 257.8683 14.81181629223019 UKUBE-1 1 40074U 14037F 18235.85530997 .00000300 00000-0 43325-4 0 9999 2 40074 98.3952 16.5681 0005513 93.3617 266.8212 14.83846031223331 HODOYOSHI-1 1 40299U 14070B 18235.86955321 .00000511 00000-0 24658-4 0 9990 2 40299 97.3744 316.4406 0013731 19.6961 72.8458 15.22987532210787 CHUBUSAT-1 1 40300U 14070C 18235.77021263 .00000580 00000-0 28577-4 0 9992 2 40300 97.3589 312.0113 0021212 28.1317 124.5866 15.21667377210551 QSAT-EOS 1 40301U 14070D 18235.85324647 .00001353 00000-0 56654-4 0 9990 2 40301 97.3560 313.6690 0027090 17.4618 118.9667 15.24961226210732 FIREBIRD FU3 1 40377U 15003B 18235.58209606 .00002192 00000-0 92193-4 0 9997 2 40377 099.0810 150.6781 0130865 007.0342 353.2683 15.17476910196532 FIREBIRD FU4 1 40378U 15003C 18235.83430340 .00002171 00000-0 91296-4 0 9997 2 40378 99.0812 151.0413 0131061 6.0733 354.2047 15.17486617196589 GRIFEX 1 40379U 15003D 18235.80152119 .00001543 00000-0 70743-4 0 9996 2 40379 99.0830 146.8047 0138423 19.7473 340.9039 15.14521105196331 NO-84 1 40654U 15025D 18235.17114642 .00003258 00000-0 59035-4 0 03850 2 40654 054.9918 093.4425 0150934 280.3048 078.0995 15.41580766066172 NO-83 1 40655U 15025E 18235.40325647 .00012417 00000-0 12692-3 0 04468 2 40655 054.9739 027.3661 0099336 321.0106 038.3792 15.59528931066762 DEORBITSAIL 1 40719U 15032E 18235.75133362 .00000260 00000-0 44624-4 0 9993 2 40719 97.9367 128.1429 0015902 185.2622 174.8424 14.76491810168145 NUDT-PHONESAT 1 40900U 15049B 18235.84951249 .00001509 00000-0 69872-4 0 9994 2 40900 97.4415 243.3318 0014283 146.0536 214.1616 15.21566691162206 XW-2A 1 40903U 15049E 18235.79082854 .00001489 00000-0 38423-4 0 9993 2 40903 97.3794 271.3081 0015180 140.8632 219.3716 15.40729371164210 XW-2C 1 40906U 15049H 18235.80925670 .00000440 00000-0 26852-4 0 9999 2 40906 97.4616 238.0697 0015799 149.9830 210.2311 15.15275729161736 XW-2D 1 40907U 15049J 18235.82085351 .00000481 00000-0 28887-4 0 9990 2 40907 97.4590 237.7708 0015214 147.5654 212.6516 15.15433296161746 LILACSAT-2 1 40908U 15049K 18235.84409712 .00000233 00000-0 16580-4 0 9996 2 40908 97.4705 237.0637 0016801 150.6152 209.6028 15.13563002161606 XW-2F 1 40910U 15049M 18235.84722828 .00000751 00000-0 41688-4 0 9997 2 40910 97.4588 239.2351 0016047 143.1178 217.1162 15.16667534161715 XW-2B 1 40911U 15049N 18235.84090202 .00000476 00000-0 28641-4 0 9990 2 40911 97.4624 238.3531 0015117 148.0959 212.1192 15.15375423161647 DCBB 1 40912U 15049P 18235.74769586 .00001037 00000-0 52818-4 0 9995 2 40912 97.4516 242.1287 0016573 131.0608 314.8423 15.18902428161921 TW-1C 1 40926U 15051B 18235.87598919 .00007376 00000-0 13289-3 0 9997 2 40926 97.1786 277.9250 0010495 38.0664 14.0956 15.50029148163795 TW-1A 1 40928U 15051D 18235.83507286 .00002501 00000-0 66622-4 0 9997 2 40928 97.1817 268.4804 0013688 77.7246 29.1077 15.39025889163184 IO-86 1 40931U 15052B 18234.58969581 .00000641 00000-0 10180-6 0 9996 2 40931 6.0005 36.5948 0013455 229.9566 129.9868 14.76581536156834 LQSat 1 40958U 15057A 18235.88964901 .00000005 00000-0 84285-5 0 9995 2 40958 97.9358 307.5272 0019318 117.5289 242.7869 14.73043441154818 AO-85 1 40967U 15058D 18235.42437725 .00000051 00000-0 23556-4 0 04253 2 40967 064.7780 347.1385 0211877 293.2588 064.6357 14.75758925063579 ATHENOXAT-1 1 41168U 15077C 18235.27901675 .00001754 00000-0 58920-4 0 9991 2 41168 14.9851 249.2169 0011874 252.9846 203.8577 15.12913584148554 ChubuSat-2 1 41338U 16012B 18235.39076489 .00000270 00000-0 14357-4 0 9997 2 41338 031.0023 246.6646 0013811 018.8131 341.3013 15.00011678137937 ChubuSat-3 1 41339U 16012C 18235.39618316 .00000302 00000-0 16798-4 0 9996 2 41339 31.0108 245.1329 0013637 25.1017 335.0306 15.00197096137927 Horyu-4 1 41340U 16012D 18235.41800208 .00000367 00000-0 21306-4 0 9996 2 41340 031.0041 239.1255 0014062 040.1393 320.0279 15.01034960138007 OUFTI-1 1 41458U 16025C 18235.73136115 .00001496 00000-0 81883-4 0 9994 2 41458 98.1321 302.1810 0168270 281.2274 77.0067 15.04859736127592 e-st@r-II 1 41459U 16025D 18235.61766842 -.00000096 00000-0 19447-8 0 9995 2 41459 98.1316 301.8736 0168910 282.5919 75.6452 15.04567736127566 AAUSAT4 1 41460U 16025E 18235.66309942 .00001740 00000-0 93594-4 0 9993 2 41460 98.1244 302.5324 0160654 277.8140 80.4874 15.06082049127641 LO-87 1 41557U 16033B 18235.82968325 .00000819 00000-0 33650-4 0 9996 2 41557 97.4358 319.8828 0011825 273.5167 86.4719 15.27009802124485 NuSat2 1 41558U 16033C 18235.80966991 .00000823 00000-0 32563-4 0 9999 2 41558 97.4378 320.0367 0011530 277.7468 82.2462 15.28308690124479 Lapan A3 1 41603U 16040E 18235.90393130 .00000135 00000-0 95203-5 0 9995 2 41603 97.4061 296.1759 0014035 10.6614 99.3717 15.19595374120360 Swayam 1 41607U 16040J 18235.16724039 .00001127 00000-0 51715-4 0 9994 2 41607 097.4080 297.2094 0013886 011.0254 349.1284 15.22414294120299 Pratham 1 41783U 16059A 18235.16589611 .00000022 00000-0 13613-4 0 9992 2 41783 098.1122 295.6239 0032388 244.2722 115.5135 14.62938057101751 AlSat 1N 1 41789U 16059G 18235.75024674 .00000061 00000-0 20763-4 0 9993 2 41789 98.1135 297.5611 0027160 233.7845 126.0835 14.64173563101903 ScatSat 1 41790U 16059H 18235.55374397 .00000008 00000-0 13271-4 0 9990 2 41790 098.2542 282.1001 0016999 243.2592 116.6864 14.50865326100955 TY-1 1 41844U 16066D 18235.86099102 .00001227 00000-0 54367-4 0 9995 2 41844 97.4065 241.9351 0016138 153.1587 290.4368 15.23426021 99183 Pegasus-1 1 41846U 16066F 18235.50365495 .00000232 00000-0 45176-4 0 9992 2 41846 098.7503 265.3255 0368918 047.2959 315.8676 14.37384492093571 CAS-2T 1 41847U 16066G 18235.54087069 .00000045 00000-0 16911-4 0 9992 2 41847 098.7463 265.8345 0366936 044.5208 318.4847 14.37914651094001 TO-89 1 41932U 98067KU 18235.40936864 .00034767 00000-0 17817-3 0 9992 2 41932 051.6311 353.2728 0002124 076.0601 284.0637 15.80931739091384 AOBA-V3LOX3 1 41935U 98067KX 18235.39204039 .00065296 00000-0 23877-3 0 9999 2 41935 051.6341 346.3246 0002258 019.3962 340.7128 15.87749300091570 EO-88 1 42017U 17008BX 18235.43851678 .00001164 00000-0 50060-4 0 9998 2 42017 097.4432 300.0844 0007620 133.7777 226.4092 15.24623600084314 HAVELSAT 1 42700U 98067LH 18235.80951936 .00025671 00000-0 17395-3 0 9992 2 42700 51.6345 8.0420 0002363 150.8594 209.2537 15.74820988 72660 SOMP2 1 42701U 98067LJ 18235.84647058 .00025850 00000-0 18520-3 0 9994 2 42701 51.6354 9.8040 0002553 145.9183 214.1980 15.73516644 72632 PHOENIX 1 42706U 98067LP 18235.87688410 .00018301 00000-0 14286-3 0 9997 2 42706 51.6360 10.7739 0001041 61.0929 299.0173 15.71733231 72544 X-CubeSat 1 42707U 98067LQ 18235.82305816 .00032639 00000-0 21126-3 0 9990 2 42707 51.6327 7.2856 0000755 44.4800 315.6260 15.75739706 72575 qbee 1 42708U 98067LR 18235.81264936 .00027889 00000-0 19049-3 0 9999 2 42708 51.6357 8.8178 0000796 27.5911 332.5130 15.74586757 72516 ZA-AeroSat 1 42713U 98067LU 18235.83824221 .00017768 00000-0 14746-3 0 9990 2 42713 51.6348 14.2561 0001959 57.2993 302.8194 15.70281851 72154 LINK 1 42714U 98067LV 18235.82343168 .00139673 18523-4 40207-3 0 9990 2 42714 51.6215 354.2425 0005683 337.9429 22.1333 15.92811359 72528 UPSat 1 42716U 98067LX 18235.77450558 .00058196 00000-0 27414-3 0 9990 2 42716 51.6310 0.9293 0000589 316.7546 43.3411 15.82520474 72457 SpaceCube 1 42717U 98067LY 18235.65433863 .00028744 00000-0 19790-3 0 9992 2 42717 51.6321 9.9648 0001361 148.5862 211.5219 15.74383412 71560 Hoopoe 1 42718U 98067LZ 18235.73555932 .00039371 00000-0 22480-3 0 9992 2 42718 51.6296 5.2265 0000595 117.5752 242.5309 15.78484177 71634 Challenger 1 42721U 98067MA 18224.59980250 .12090849 12543-4 42456-3 0 9997 2 42721 051.6121 042.1184 0010981 284.9336 075.0476 16.43490172069841 NJUST-1 1 42722U 98067MB 18235.81538130 .00017084 00000-0 14849-3 0 9994 2 42722 51.6358 16.3851 0004511 125.7811 234.3606 15.69184663 71198 UNSW-EC0 1 42723U 98067MC 18235.56647717 .00048901 00000-0 26124-3 0 9990 2 42723 051.6385 005.6746 0001617 132.2379 227.8760 15.79861009071295 DUTHsat 1 42724U 98067MD 18235.78659133 .01326505 11850-4 68182-3 0 9999 2 42724 51.6183 346.4345 0012332 332.8068 27.2311 16.19515804 71492 LO-90 1 42725U 98067ME 18235.79759404 .00022547 00000-0 16949-3 0 9996 2 42725 51.6358 12.4959 0003061 127.8948 232.2327 15.72471383 71144 nSIGHT1 1 42726U 98067MF 18235.80982117 .00007822 00000-0 91861-4 0 9994 2 42726 51.6391 26.1996 0005284 124.8695 235.2796 15.62524807 70972 SNUSAT 1B 1 42727U 98067MG 18235.49279462 .00023933 00000-0 17974-3 0 9995 2 42727 051.6337 014.1418 0004803 087.2820 272.8728 15.72446509071063 QBITO 1 42728U 98067MH 18235.79033911 .00029790 00000-0 20095-3 0 9991 2 42728 51.6369 9.4972 0001029 124.2391 235.8706 15.74837923 70995 Aalto-2 1 42729U 98067MJ 18235.81850000 .00029823 00000-0 19712-3 0 9992 2 42729 51.6330 8.8472 0000715 120.7141 239.3929 15.75307702 71015 SUSat 1 42730U 98067MK 18235.82388471 .00024610 00000-0 17928-3 0 9999 2 42730 51.6341 11.1460 0001343 126.4049 233.7073 15.73157187 70971 i-INSPIRE II 1 42731U 98067ML 18235.78231466 .00051118 00000-0 26057-3 0 9992 2 42731 51.6355 3.2646 0003003 42.0888 318.0344 15.80866198 71127 PolyITAN-2-SAU 1 42732U 98067MM 18235.83840191 .00031108 00000-0 20393-3 0 9994 2 42732 51.6338 8.1975 0003894 69.5039 290.6379 15.75467504 71066 ExAlta-1 1 42734U 98067MP 18235.78728479 .00055026 00000-0 26491-3 0 9994 2 42734 51.6282 2.4545 0002208 87.3079 272.8176 15.82074764 71085 Aoxiang-1 1 42735U 98067MQ 18235.89276929 .00017056 00000-0 14578-3 0 9999 2 42735 51.6350 15.3705 0004879 123.7227 236.4235 15.69593982 72344 BeEagleSat 1 42736U 98067MR 18235.81309347 .00022346 00000-0 17470-3 0 9995 2 42736 51.6348 13.3181 0004261 122.7785 237.3624 15.71539724 71057 CAS-4B 1 42759U 17034B 18235.76565661 .00000082 00000-0 18632-4 0 9997 2 42759 43.0193 72.2584 0008852 175.3863 246.2753 15.09345948 65663 CAS-4A 1 42761U 17034D 18235.74294257 .00000222 00000-0 27159-4 0 9998 2 42761 43.0196 72.1089 0009335 177.1092 239.0063 15.09423125 65656 UCLSat 1 42765U 17036A 18235.60092602 .00000909 00000-0 42808-4 0 9999 2 42765 097.3955 294.3479 0011379 192.0664 168.0301 15.21996157065557 NIUSat 1 42766U 17036B 18235.59074837 .00000739 00000-0 36870-4 0 9991 2 42766 097.3955 293.4656 0015867 182.2517 177.8649 15.20511508064777 LituanicaSAT 2 1 42768U 17036D 18235.41432407 .00001554 00000-0 71745-4 0 9991 2 42768 097.3974 293.7364 0015578 184.5301 175.5797 15.21603126064783 Aalto 1 1 42775U 17036L 18235.40905873 .00000585 00000-0 29546-4 0 9995 2 42775 097.3947 293.5280 0014078 182.4837 177.6331 15.20845803064710 URSA MAIOR 1 42776U 17036M 18235.39195463 .00000677 00000-0 33637-4 0 9998 2 42776 097.3954 293.5766 0013921 182.6474 177.4690 15.20934206064715 Max Valier Sat 1 42778U 17036P 18235.39975867 .00000736 00000-0 35823-4 0 9999 2 42778 97.3980 293.9805 0012417 186.4861 173.6216 15.21429300 64723 Pegasus 1 42784U 17036V 18235.58117187 .00000873 00000-0 41467-4 0 9993 2 42784 097.3958 294.2375 0011904 192.6242 167.4698 15.21799519064764 NUDATSat 1 42787U 17036Y 18235.60407844 .00001282 00000-0 58368-4 0 9994 2 42787 097.3966 294.5295 0011488 191.5206 168.5769 15.22435771064629 SUCHAI 1 1 42788U 17036Z 18235.59175378 .00001033 00000-0 48112-4 0 9997 2 42788 097.3960 294.3759 0011533 192.0405 168.0558 15.22091068064847 SKCUBE 1 42789U 17036AA 18235.33009449 .00000965 00000-0 45203-4 0 9996 2 42789 097.3957 294.1070 0011328 192.8995 167.1953 15.22042986064723 VZLUSAT 1 1 42790U 17036AB 18235.39538202 .00001305 00000-0 59340-4 0 9994 2 42790 097.3964 294.3312 0011007 192.3413 167.7555 15.22451489064746 VENTA 1 1 42791U 17036AC 18235.44104293 .00000884 00000-0 41622-4 0 9995 2 42791 097.3956 294.2598 0010976 192.9061 167.1896 15.22084552064736 Robusta 1B 1 42792U 17036AD 18235.75248392 .00000998 00000-0 46447-4 0 9995 2 42792 97.3956 294.5986 0010932 192.0648 168.0328 15.22194324 64802 D-SAT 1 42794U 17036AF 18235.56223014 .00000308 00000-0 32068-4 0 9999 2 42794 097.5857 287.6513 0128278 058.4570 302.9102 14.90913260063762 BIRD-J 1 42820U 98067MU 18235.79597631 .00021222 00000-0 17324-3 0 9991 2 42820 51.6348 16.2176 0002417 50.7062 309.4150 15.70543399 64471 BIRD-G 1 42821U 98067MV 18235.49229259 .00019428 00000-0 16380-3 0 9993 2 42821 051.6346 018.6944 0002386 054.8747 305.2473 15.69826909064414 BIRD-M 1 42822U 98067MW 18235.58860524 .00020005 00000-0 16610-3 0 9999 2 42822 051.6348 017.8412 0002332 055.3922 304.7295 15.70176087064435 BIRD-B 1 42823U 98067MX 18235.77046241 .00020432 00000-0 16837-3 0 9998 2 42823 51.6356 16.8274 0004228 81.9391 278.2086 15.70338493 64446 BIRD-N 1 42824U 98067MY 18235.48650515 .00019771 00000-0 16501-3 0 9994 2 42824 051.6359 018.7014 0004169 081.8387 278.3083 15.70055787064418 TechnoSat 1 42829U 17042E 18235.68327010 .00000137 00000-0 19350-4 0 9998 2 42829 97.5893 135.4706 0013770 341.3270 18.7442 14.90849773 60387 TOMSK-TPU 120 1 42910U 98067MZ 18235.80981283 .00014352 00000-0 14169-3 0 9993 2 42910 51.6350 23.0709 0005402 104.1314 256.0283 15.66180233 57973 TANYUSHA 1 1 42911U 98067NA 18235.80668532 .00017109 00000-0 15907-3 0 9997 2 42911 51.6356 21.5882 0004817 99.1123 261.0419 15.67520715 57976 TANYUSHA 2 1 42912U 98067NB 18235.83653624 .00015578 00000-0 14953-3 0 9995 2 42912 51.6378 22.5279 0004356 111.2937 248.8524 15.66811653 57983 SFERA 2 1 42913U 98067NC 18235.86982660 .00050339 00000-0 28577-3 0 9995 2 42913 51.6352 9.8737 0000879 131.8204 228.2872 15.78502886 58116 TNS 0-2 1 42914U 98067ND 18235.54445699 .00013781 00000-0 13741-3 0 9994 2 42914 051.6361 025.1000 0004551 104.8780 255.2720 15.65974984057895 QIKCOM-1 1 42983U 98067NF 18235.88067983 .00002535 00000-0 41724-4 0 9991 2 42983 51.6404 37.9275 0004743 91.2063 268.9472 15.56647079 46761 AO-91 1 43017U 17073E 18235.77364215 .00000716 00000-0 61023-4 0 9997 2 43017 97.7073 164.0904 0260844 51.8117 310.6278 14.78145730 41092 EcAMSat 1 43019U 98067NG 18235.85164840 .00003998 00000-0 59593-4 0 9996 2 43019 51.6404 36.9894 0005357 69.0403 291.1162 15.57676879129094 PICSAT 1 43132U 18004X 18235.59770748 .00000826 00000-0 38442-4 0 9993 2 43132 097.5289 298.4442 0008983 214.8447 145.2202 15.22786069033970 AO-92 1 43137U 18004AC 18235.64938842 .00000754 00000-0 35312-4 0 9998 2 43137 97.5284 298.5202 0008464 216.2550 143.8113 15.22836064 33976 TianYi 2 1 43155U 18008A 18235.86127510 .00000569 00000-0 38188-4 0 9996 2 43155 97.5204 309.1786 0016261 272.7591 191.8230 15.10655316 32709 Zhou Enlai 1 43156U 18008B 18235.87496753 .00000976 00000-0 63672-4 0 9994 2 43156 97.5252 309.1410 0013426 269.4270 203.8480 15.10125104 32690 TianYi 6 1 43158U 18008D 18235.78974148 .00000209 00000-0 16858-4 0 9998 2 43158 97.5206 308.8540 0012741 268.3719 239.4662 15.09813457 32652 S-Net G 1 43186U 18014G 18235.82310900 .00000606 00000-0 58432-4 0 9996 2 43186 97.7194 143.4134 0009504 288.3548 71.6640 14.96485681 30433 S-Net H 1 43187U 18014H 18235.82299274 .00000602 00000-0 58076-4 0 9997 2 43187 97.7192 143.4088 0009501 288.3058 71.7130 14.96486499 30436 S-Net J 1 43188U 18014J 18235.82288004 .00000601 00000-0 57970-4 0 9998 2 43188 97.7195 143.4153 0009494 288.4548 71.5641 14.96487225 30432 S-Net K 1 43189U 18014K 18235.82303477 .00000605 00000-0 58355-4 0 9993 2 43189 97.7191 143.4078 0009492 288.3040 71.7149 14.96486127 28981 FMN 1 1 43192U 18015A 18235.77969785 .00001767 00000-0 77894-4 0 9991 2 43192 97.3637 3.3169 0015223 265.7193 94.2303 15.23027929 30806 Shaonian Xing 1 43199U 18015H 18235.78985828 .00001343 00000-0 58468-4 0 9991 2 43199 97.3420 3.0131 0016125 280.5110 79.4310 15.23850133 30832 1KUNS-PF 1 43466U 98067NP 18235.85395668 .00008912 00000-0 12814-3 0 9991 2 43466 51.6396 39.9956 0000428 67.1093 292.9944 15.56902794 16235 UBAKUSAT 1 43467U 98067NQ 18235.86401859 .00006687 00000-0 99291-4 0 9995 2 43467 51.6401 40.0656 0002665 33.0938 327.0220 15.56508820 16248 Irazu 1 43468U 98067NR 18235.84089098 .00009921 00000-0 14000-3 0 9999 2 43468 51.6395 39.9083 0000299 67.0489 293.0535 15.57261949116220 EnduroSat One 1 43551U 98067NZ 18235.63248144 .00007425 00000-0 11432-3 0 9991 2 43551 51.6397 42.2605 0006984 106.9475 253.2282 15.55307695 6421 EQUISat 1 43552U 98067PA 18235.63287119 .00006391 00000-0 99596-4 0 9996 2 43552 51.6399 42.2636 0007237 107.1278 253.0506 15.55249017 6389 UiTMSat 1 1 43589U 98067PD 18235.65442825 .00007024 00000-0 11072-3 0 9991 2 43589 51.6397 42.4056 0006607 115.9822 244.1850 15.54751727 2123 Maya 1 1 43590U 98067PE 18235.84701942 .00007006 00000-0 11033-3 0 9999 2 43590 51.6397 41.4419 0006694 116.9545 243.2130 15.54782702 2089 Bhutan 1 1 43591U 98067PF 18235.84670256 .00007031 00000-0 11055-3 0 9995 2 43591 51.6398 41.4398 0006796 118.4897 241.6779 15.54819195 2085 SiriusSat 1 1 43595U 98067PG 18235.85146859 .00006655 00000-0 10656-3 0 9994 2 43595 51.6398 41.4675 0004094 72.8982 287.2457 15.54422204 1263 OBJECT PH 1 43596U 98067PH 18235.85217216 .00006795 00000-0 10916-3 0 9995 2 43596 51.6406 41.4735 0004809 75.2487 284.9036 15.54289130 1268 OBJECT PJ 1 43597U 98067PJ 18235.85216043 .00007944 00000-0 12632-3 0 9997 2 43597 51.6388 41.4730 0004240 87.6169 272.5307 15.54302138 1264 /EX
